Simultaneous Nadir Overpasses (SNOs) Predictions

Prediction of SNOs between AQUA and METOP-C Satellite Orbit:

Table of predicted SNOs for the next 14.0 days since TLE Epoch: 5/3/2019
Index Date (AQUA) Time (AQUA) Lat,Lon (AQUA) SZA (AQUA ) Date (METOP-C) Time (METOP-C) Lat,Lon (METOP-C) SZA (METOP-C ) Distance(km) Time Diff (sec)
1 05/04/2019 03:27:59 -73.75, -57.51 122.14 05/04/2019 03:27:03 -73.76, -57.57 122.13 1.78 56
2 05/04/2019 04:17:29 73.85, 109.90 57.96 05/04/2019 04:17:41 73.84, 109.96 57.94 2.27 12
3 05/04/2019 05:07:04 -74.37, -83.64 121.50 05/04/2019 05:08:12 -74.38, -81.38 121.56 67.77 68
4 05/06/2019 23:02:13 -73.79, 8.85 122.91 05/06/2019 23:01:25 -73.80, 8.93 122.90 2.61 48
5 05/06/2019 23:51:42 73.84, 176.37 57.14 05/06/2019 23:52:04 73.82, 176.32 57.12 2.70 22
6 05/09/2019 18:36:27 -73.78, 75.31 123.68 05/09/2019 18:35:49 -73.79, 75.31 123.67 0.77 38
7 05/09/2019 19:25:56 73.83,-117.17 56.37 05/09/2019 19:26:27 73.85,-117.20 56.38 2.47 31
8 05/12/2019 14:10:41 -73.77, 141.76 124.42 05/12/2019 14:10:13 -73.78, 141.69 124.41 2.28 28
9 05/12/2019 15:00:10 73.83, -50.73 55.64 05/12/2019 15:00:51 73.83, -50.84 55.64 3.61 41
10 05/15/2019 09:44:55 -73.82,-151.91 125.05 05/15/2019 09:44:35 -73.81,-151.81 125.06 3.14 20
11 05/15/2019 10:34:24 73.88, 15.59 55.01 05/15/2019 10:35:13 73.86, 15.64 54.98 2.58 49




NCC Satellite Simultaneous Nadir Overpasses (SNOs) Prediction Service
